Погода в Мортках

Россия / Ивановская область     56°51′42″N   43°06′45″E
темп.,
°C
ветер,
м/с
пор.,
м/с
влажн.,
%
обл.,
%
осадки,
мм/ч
давл.,
гПа
погр.,
м
11 апреля, вс
вс1100:00−2ююз25910 0.0 102764
03:00−2ююз25910 0.0 102778
06:00−5ююз25955 0.0 102870
09:00+4юз359023 0.0 1029143
12:00+8юз358651 0.0 1030427
15:00+11зюз24730 0.0 1030859
18:00+8ююв11883 0.0 103110
21:00+4сз11919 0.0 103310
12 апреля, пн
пн1200:00+2в11959 0.0 103510
03:00+1вюв229716 0.0 103623
06:00+2всв2598100 0.0 103776
09:00+6вюв3788100 0.0 1037244
12:00+10вюв4777100 0.0 1037592
15:00+11вюв4772100 0.0 1036783
18:00+8в4986100 0.0 1035382
21:00+6вюв51495100 0.0 1034500
13 апреля, вт
вт1300:00+5вюв41094100 0.0 1034333
03:00+4вюв3997100 0.0 1033225
06:00+4юв3898100 0.0 1032164
09:00+10ююв4780100 0.0 1030246
12:00+17ю585854 0.0 1029745
15:00+18ю5745100 0.0 10281393
18:00+14ююв376152 0.0 1027117
21:00+10ю3107183 0.0 1028165
14 апреля, ср
ср1400:00+8ю3117554 0.0 1027177
03:00+7ю3107892 0.0 1027158
06:00+7ю38780 0.0 1026125
09:00+13ю47565 0.0 1026339
12:00+17ю47425 0.0 10241056
15:00+19ю4639100 0.0 10231660
18:00+15ююв3556100 0.0 1022106
21:00+11ю3467100 0.0 102255
15 апреля, чт
чт1500:00+9ю346812 0.0 102151
03:00+7ю237138 0.0 102126
06:00+7ю2273100 0.0 102031
09:00+12ю3556100 0.0 1019298
12:00+17ю2342100 0.0 1018937
15:00+18ююз2337100 0.0 10171609
18:00+15ююв1149100 0.0 101611
21:00+12в1158100 0.0 101610